This is the latest recevied weather packets stored in our database for station/object AD7ZD. If no packets are shown the sender has not sent any weather packets the latest 10 day(s).
| Time | Temp. | Humidity | Pressure | Rain* | Wind** | Luminosity | Snow |
|---|---|---|---|---|---|---|---|
| 1778057760 | 10.56° C | 76% | 1013.5 hPa | 0 mm | - | 0 W/m² | - |
| 1778057456 | 10.56° C | 76% | 1013.5 hPa | 0 mm | - | 0 W/m² | - |
| 1778057153 | 10.56° C | 75% | 1013.4 hPa | 0 mm | - | 0 W/m² | - |
| 1778056850 | 11.11° C | 75% | 1013.4 hPa | 0 mm | - | 0 W/m² | - |
| 1778056547 | 11.11° C | 74% | 1013.5 hPa | 0 mm | - | 0 W/m² | - |
| 1778056244 | 11.67° C | 73% | 1013.4 hPa | 0 mm | - | 0 W/m² | - |
| 1778055941 | 11.67° C | 72% | 1013.5 hPa | 0 mm | - | 0 W/m² | - |
| 1778055637 | 11.11° C | 74% | 1013.5 hPa | 0 mm | - | 0 W/m² | - |
| 1778055335 | 11.11° C | 74% | 1013.5 hPa | 0 mm | - | 0 W/m² | - |
| 1778055032 | 11.11° C | 74% | 1013.4 hPa | 0 mm | - | 0 W/m² | - |
| 1778054730 | 10.56° C | 75% | 1013.5 hPa | 0 mm | - | 0 W/m² | - |
| 1778054427 | 11.11° C | 72% | 1013.1 hPa | 0 mm | - | 0 W/m² | - |
| 1778054124 | 12.78° C | 65% | 1013.4 hPa | 0 mm | - | 0 W/m² | - |
| 1778053821 | 12.78° C | 64% | 1013.3 hPa | 0 mm | - | 0 W/m² | - |
| 1778053518 | 11.67° C | 70% | 1013.4 hPa | 0 mm | - | 0 W/m² | - |
| 1778053215 | 11.67° C | 72% | 1013.4 hPa | 0 mm | - | 0 W/m² | - |
| 1778052913 | 11.11° C | 76% | 1013.3 hPa | 0 mm | - | 0 W/m² | - |
| 1778052610 | 11.11° C | 75% | 1013.4 hPa | 0 mm | - | 0 W/m² | - |
| 1778052307 | 11.11° C | 76% | 1013.1 hPa | 0 mm | - | 0 W/m² | - |
| 1778052005 | 11.67° C | 75% | 1013.3 hPa | 0 mm | - | 0 W/m² | - |
| 1778051703 | 11.67° C | 76% | 1013 hPa | 0 mm | - | 0 W/m² | - |
| 1778051400 | 11.67° C | 76% | 1013.1 hPa | 0 mm | - | 0 W/m² | - |
| 1778051097 | 11.11° C | 77% | 1013.1 hPa | 0 mm | - | 0 W/m² | - |
| 1778050794 | 12.22° C | 72% | 1013 hPa | 0 mm | - | 0 W/m² | - |
| 1778050491 | 11.67° C | 73% | 1012.8 hPa | 0 mm | - | 0 W/m² | - |
* Rain latest hour (hover to see other rain measurements)
** Current wind speed in m/s (hover to see current wind gust speed)